[[{"header":{"parameterUnit":"m.s-1","parameterCategory":1,"la1":30.2991,"la2":30.254,"lo1":-89.0895,"lo2":-89.0444,"dy":0.0017,"dx":0.0017,"nx":28,"ny":28,"refTime":"2023-09-05T21:00:00:Z","depth":0,"parameterNumber":2,"parameterNumberName":"U-component_of_WINDS"},"data":[0,0,0,0,0,0,0,0,0,0,0,0,0,0,0,0,0,0,0,0,0,0,0,0,0,0,0,0,0,0,0,0,0,0,0,0,0,0,0,0,0,0,0,0,0,0,0,0,0,0,0,0,0,0,0,0,0,0,-3.8883,-3.8884,0,-3.9009,-3.901,-3.9011,-3.8965,-3.8962,-3.896,-3.8957,-3.9083,-3.9089,-3.9095,0,0,0,0,0,0,0,0,0,0,0,0,0,-3.8601,-3.8607,-3.8883,-3.8884,-3.8886,-3.9008,-3.901,-3.9012,-3.8966,-3.8962,-3.8959,-3.8956,-3.9081,-3.9088,-3.9096,0,0,0,0,0,0,0,0,0,0,0,0,0,-3.8725,-3.8609,-3.8882,-3.8878,-3.8879,-3.9008,-3.901,-3.9012,-3.8967,-3.8962,-3.8958,-3.8954,-3.9079,-3.9088,-3.9097,-3.9237,0,0,-3.9124,-3.9128,0,0,0,0,0,0,0,0,-3.8718,-3.8735,-3.8877,-3.8878,-3.888,-3.8967,-3.8957,-3.9088,-3.8968,-3.8933,-3.8957,-3.8952,-3.9048,-3.9059,-3.9092,-3.9243,-3.9249,-3.9125,-3.913,-3.9134,-3.9137,0,0,0,0,0,0,0,-3.871,-3.873,-3.8932,-3.8879,-3.8881,-3.8869,-3.8882,-3.8982,-3.9013,-3.8936,-3.8933,-3.8948,-3.9048,-3.9083,-3.9095,-3.9251,-3.9125,-3.9133,-3.9138,-3.9142,-3.9524,-3.9528,0,0,0,0,0,0,-3.8701,-3.8723,-3.8928,-3.8936,-3.8787,-3.8877,-3.8892,-3.8943,-3.9012,-3.9018,-3.8952,-3.8946,-3.907,-3.9084,-3.9099,-3.9267,-3.9134,-3.9143,-3.9148,-3.9519,-3.9525,-3.953,0,0,0,0,0,0,-3.8695,-3.8719,-3.8923,-3.8829,-3.8854,-3.8887,-3.8945,-3.8948,-3.8983,-3.9024,-3.9029,-3.8983,-3.9067,-3.9086,-3.9203,-3.9271,-3.9147,-3.9155,-3.9513,-3.9521,-3.9527,-3.9606,0,0,0,0,0,0,-3.8687,-3.8718,-3.8772,-3.883,-3.8859,-3.9026,-3.8949,-3.8953,-3.8999,-3.8993,-3.9054,-3.906,-3.9065,-3.919,-3.9212,-3.9281,-3.9162,-3.9507,-3.9517,-3.9525,-3.9597,-3.9615,-3.963,0,0,0,0,0,-3.8677,-3.8788,-3.8775,-3.88,-3.8927,-3.903,-3.9047,-3.9051,-3.9005,-3.9059,-3.9085,-3.9058,-3.9261,-3.9203,-3.9227,-3.93,-3.9503,-3.9514,-3.9524,-3.959,-3.9611,-3.9629,0,0,0,0,0,0,-3.8735,-3.8796,-3.8781,-3.8915,-3.8968,-3.9022,-3.9091,-3.9074,-3.914,-3.9131,-3.9133,-3.9148,-3.9268,-3.9296,-3.923,-3.944,-3.9375,-3.9391,-3.9416,-3.9437,-3.9453,-3.9442,-3.917,0,0,0,0,0,-3.8764,-3.8843,-3.8892,-3.9005,-3.9032,-3.9058,-3.9102,-3.9102,-3.9156,-3.9178,-3.9213,-3.9266,-3.9342,-3.9391,-3.9463,-3.9602,-3.9614,-3.9664,-3.968,-3.9694,-3.9707,-3.9781,-3.9804,-3.9565,-3.9565,-3.9564,0,0,-3.8824,-3.8867,-3.8916,-3.9018,-3.9059,-3.914,-3.9076,-3.9165,-3.9225,-3.9191,-3.9303,-3.9331,-3.9391,-3.952,-3.9578,-3.9547,-3.9776,-3.9707,-3.9717,-3.9723,-3.9795,-3.9817,-3.9837,-3.9572,-3.9571,-3.9569,0,0,-3.8973,-3.9014,-3.9113,-3.9155,-3.9219,-3.9235,-3.9259,-3.9316,-3.9333,-3.9447,-3.9423,-3.9495,-3.9625,-3.9669,-3.9708,-3.9876,-3.9853,-3.99,-3.9983,-4.0056,-4.0075,-4.0092,-4.015,-4.0172,-3.9913,-3.9914,-3.9914,0,-3.9038,-3.916,-3.9165,-3.9256,-3.9301,-3.9276,-3.9375,-3.9417,-3.95,-3.9531,-3.9496,-3.9659,-3.9698,-3.9836,-3.9877,-3.9911,-3.9937,-3.9891,-4.0072,-4.0089,-4.0105,-4.016,-4.0183,-3.9919,-3.9918,-3.9918,-3.9917,0,-3.9237,-3.9322,-3.9394,-3.9476,-3.9529,-3.9624,-3.9643,-3.9697,-3.9692,-3.9712,-3.9828,-3.9874,-3.9955,-3.9988,-3.9984,-4.0126,-4.0104,-4.0071,-4.0005,-4.0132,-4.0185,-4.0206,-3.9926,-3.9924,-3.9923,-3.9921,0,0,-3.9424,-3.9509,-3.9535,-3.9571,-3.964,-3.9706,-3.98,-3.988,-3.9925,-3.9984,-4.0062,-4.0174,-4.0144,-4.0189,-4.019,-4.0254,-4.0383,-4.0213,-4.0214,-4.0241,-4.0541,-4.0564,-4.0589,-4.037,-4.0374,-4.0377,-4.0535,0,-3.9577,-3.9742,-3.975,-3.9899,-3.9977,-3.9956,-4.0037,-4.0088,-4.011,-4.0179,-4.0203,-4.0282,-4.0237,-4.0264,-4.0327,-4.0354,-4.0443,-4.0343,-4.0441,-4.0444,-4.0424,-4.0616,-4.0641,-4.0788,-4.0556,-4.0559,-4.0562,0,-3.9777,-3.9843,-4.0,-4.0058,-4.0091,-4.0165,-4.0239,-4.0306,-4.0363,-4.0374,-4.0426,-4.0418,-4.0514,-4.0447,-4.0579,-4.0511,-4.0552,-4.0571,-4.0577,-4.0584,-4.0509,-4.0627,-4.0835,-4.0856,-4.0595,-4.0592,-4.059,0,-3.9895,-4.0024,-4.0134,-4.0167,-4.0238,-4.029,-4.0321,-4.0375,-4.0423,-4.0488,-4.0518,-4.0594,-4.0635,-4.0693,-4.0706,-4.0657,-4.0837,-4.0772,-4.0848,-4.0848,-4.0884,-4.0881,-4.11,-4.0915,-4.0915,-4.0914,-4.0914,0,-4.0064,-4.0161,-4.0188,-4.0256,-4.0364,-4.0373,-4.0479,-4.0507,-4.0556,-4.0628,-4.0615,-4.0684,-4.0697,-4.0769,-4.078,-4.0886,-4.0906,-4.0917,-4.0918,-4.0917,-4.0915,-4.0941,-4.0931,-4.092,-4.0919,-4.0918,-4.0917,0,-4.0213,-4.0235,-4.0354,-4.0413,-4.0429,-4.0506,-4.0556,-4.0621,-4.0642,-4.0734,-4.0756,-4.0789,-4.0873,-4.0892,-4.0991,-4.0999,-4.1125,-4.1117,-4.1105,-4.1104,-4.1178,-4.117,-4.1419,-4.1452,-4.1247,-4.1249,-4.1251,0,-4.0318,-4.0392,-4.0458,-4.0506,-4.0541,-4.0618,-4.0667,-4.068,-4.0731,-4.0803,-4.0859,-4.0941,-4.1007,-4.1142,-4.1174,-4.125,-4.1243,-4.1326,-4.1254,-4.1251,-4.1242,-4.1237,-4.1244,-4.1338,-4.134,-4.1342,-4.1343,0,-4.0501,-4.0509,-4.058,-4.0656,-4.0715,-4.0775,-4.0832,-4.0872,-4.0892,-4.0951,-4.1036,-4.1088,-4.119,-4.1271,-4.1348,-4.138,-4.1365,-4.1366,-4.1387,-4.1385,-4.1375,-4.138,-4.1139,-4.136,-4.1358,-4.1357,-4.1356,-4.1355,-4.063,-4.0694,-4.0751,-4.0831,-4.0876,-4.093,-4.0994,-4.1024,-4.1095,-4.1179,-4.1183,-4.1276,-4.1332,-4.1434,-4.1471,-4.1544,-4.1518,-4.155,-4.1557,-4.1564,-4.157,-4.1366,-4.1558,-4.1558,-4.1557,-4.1557,-4.1557,0,-4.0811,-4.0847,-4.092,-4.1001,-4.1064,-4.1046,-4.1109,-4.1162,-4.1245,-4.1299,-4.1365,-4.1463,-4.1543,-4.1583,-4.1661,-4.1712,-4.1707,-4.1732,-4.1727,-4.1735,-4.1589,-4.1562,-4.1735,-4.1735,-4.1735,-4.1734,-4.1734,-4.1734,-4.0912,-4.102,-4.1035,-4.1165,-4.1201,-4.1292,-4.1329,-4.1379,-4.1422,-4.1533,-4.1599,-4.1625,-4.1674,-4.1756,-4.1828,-4.1838,-4.1867,-4.1895,-4.1901,-4.1763,-4.1745,-4.1728,-4.1702,-4.1901,-4.1902,-4.204,-4.2042,-4.2043]},{"header":{"parameterUnit":"m.s-1","parameterCategory":1,"la1":30.2991,"la2":30.254,"lo1":-89.0895,"lo2":-89.0444,"dy":0.0017,"dx":0.0017,"nx":28,"ny":28,"refTime":"2023-09-05T21:00:00:Z","depth":0,"parameterNumber":3,"parameterNumberName":"V-component_of_WINDS"},"data":[0,0,0,0,0,0,0,0,0,0,0,0,0,0,0,0,0,0,0,0,0,0,0,0,0,0,0,0,0,0,0,0,0,0,0,0,0,0,0,0,0,0,0,0,0,0,0,0,0,0,0,0,0,0,0,0,0,0,1.738,1.738,0,1.7375,1.7375,1.7375,1.7369,1.7369,1.7369,1.7369,1.7362,1.7362,1.7362,0,0,0,0,0,0,0,0,0,0,0,0,0,1.7385,1.7385,1.738,1.738,1.738,1.7375,1.7375,1.7375,1.7369,1.7369,1.7369,1.7369,1.7362,1.7362,1.7362,0,0,0,0,0,0,0,0,0,0,0,0,0,1.7382,1.7385,1.738,1.7377,1.7376,1.7375,1.7375,1.7374,1.7369,1.7369,1.7369,1.7368,1.7362,1.7362,1.7362,1.7363,0,0,1.7362,1.7362,0,0,0,0,0,0,0,0,1.7382,1.7382,1.7377,1.7377,1.7376,1.7372,1.7374,1.7371,1.7369,1.7372,1.7369,1.7368,1.7366,1.7365,1.7364,1.7363,1.7363,1.7362,1.7361,1.7361,1.7361,0,0,0,0,0,0,0,1.7382,1.7382,1.7378,1.7377,1.7377,1.7375,1.7374,1.7373,1.7369,1.7371,1.7371,1.737,1.7365,1.7365,1.7364,1.7363,1.7362,1.7361,1.7361,1.7361,1.7362,1.7363,0,0,0,0,0,0,1.7383,1.7382,1.7378,1.7378,1.7379,1.7375,1.7374,1.7374,1.7369,1.7369,1.737,1.737,1.7365,1.7364,1.7364,1.7365,1.7361,1.7361,1.7361,1.7362,1.7363,1.7363,0,0,0,0,0,0,1.7383,1.7383,1.7378,1.738,1.7379,1.7375,1.7374,1.7374,1.7373,1.7369,1.7368,1.737,1.7365,1.7364,1.7364,1.7365,1.7361,1.7361,1.7362,1.7362,1.7363,1.7368,0,0,0,0,0,0,1.7383,1.7383,1.7383,1.738,1.7379,1.7378,1.7375,1.7374,1.7373,1.7372,1.7368,1.7368,1.7365,1.7364,1.7364,1.7365,1.7361,1.7362,1.7362,1.7363,1.7368,1.7368,1.7369,0,0,0,0,0,1.7384,1.7385,1.7383,1.7383,1.738,1.7378,1.7378,1.7375,1.7373,1.7373,1.7371,1.7368,1.7365,1.7364,1.7363,1.7365,1.7362,1.7362,1.7363,1.7367,1.7368,1.7369,0,0,0,0,0,0,1.7388,1.7384,1.7383,1.7383,1.7381,1.7377,1.7378,1.7376,1.7374,1.7373,1.7369,1.7368,1.7368,1.7366,1.7365,1.7366,1.7363,1.7363,1.7367,1.7368,1.7368,1.7369,1.7361,0,0,0,0,0,1.739,1.7389,1.7386,1.7386,1.7385,1.7382,1.7381,1.7379,1.7377,1.7376,1.7373,1.7371,1.7369,1.7368,1.7367,1.7368,1.7367,1.7368,1.7369,1.7369,1.7369,1.7369,1.737,1.7364,1.7364,1.7364,0,0,1.7392,1.739,1.739,1.7387,1.7385,1.7385,1.7381,1.7381,1.738,1.7375,1.7375,1.7373,1.737,1.737,1.737,1.7369,1.7371,1.737,1.737,1.737,1.737,1.737,1.7371,1.7364,1.7364,1.7364,0,0,1.7396,1.7394,1.7394,1.7393,1.739,1.7388,1.7388,1.7385,1.7384,1.7383,1.738,1.7379,1.7377,1.7375,1.7374,1.7377,1.7374,1.7377,1.738,1.738,1.738,1.7381,1.7382,1.7382,1.7377,1.7377,1.7377,0,1.7399,1.7398,1.7395,1.7395,1.7394,1.739,1.739,1.7389,1.7386,1.7385,1.7384,1.7381,1.7379,1.7378,1.7379,1.7378,1.7378,1.7377,1.7381,1.7381,1.7381,1.7382,1.7383,1.7377,1.7377,1.7377,1.7377,0,1.7402,1.7401,1.7402,1.7399,1.7398,1.7398,1.7395,1.7395,1.7393,1.7391,1.739,1.7387,1.7385,1.7385,1.7383,1.7384,1.7384,1.7382,1.7379,1.7382,1.7383,1.7384,1.7378,1.7378,1.7378,1.7377,0,0,1.7408,1.7404,1.7404,1.7403,1.7401,1.74,1.74,1.7398,1.7398,1.7396,1.7396,1.7394,1.7392,1.7391,1.7388,1.7389,1.7391,1.7386,1.7386,1.7387,1.7393,1.7394,1.7395,1.739,1.739,1.739,1.7393,0,1.7411,1.7411,1.7408,1.7408,1.7408,1.7405,1.7404,1.7403,1.7401,1.74,1.7398,1.7397,1.7394,1.7393,1.7394,1.7391,1.7392,1.7391,1.7389,1.7389,1.739,1.7395,1.7396,1.7399,1.7393,1.7393,1.7393,0,1.7414,1.7413,1.7414,1.7411,1.7411,1.741,1.7409,1.7408,1.7406,1.7405,1.7403,1.7401,1.74,1.7398,1.7397,1.7396,1.7396,1.7394,1.7394,1.7394,1.7391,1.7394,1.74,1.74,1.7394,1.7394,1.7394,0,1.7419,1.7417,1.7417,1.7416,1.7413,1.7413,1.7412,1.741,1.7409,1.7408,1.7407,1.7405,1.7404,1.7403,1.74,1.7399,1.74,1.7397,1.7399,1.7399,1.7398,1.7398,1.7404,1.7399,1.7399,1.7399,1.7399,0,1.7422,1.7422,1.7419,1.7419,1.7419,1.7416,1.7417,1.7415,1.7413,1.7413,1.741,1.7409,1.7406,1.7405,1.7403,1.7402,1.7402,1.7401,1.74,1.7401,1.7401,1.74,1.7399,1.7399,1.7399,1.7399,1.7399,0,1.7427,1.7424,1.7424,1.7422,1.7421,1.7421,1.7419,1.7419,1.7417,1.7416,1.7416,1.7413,1.7412,1.7409,1.7407,1.7405,1.7405,1.7404,1.7406,1.7406,1.7407,1.7407,1.7412,1.7412,1.7407,1.7407,1.7407,0,1.7429,1.7429,1.7427,1.7426,1.7425,1.7424,1.7424,1.7421,1.742,1.7418,1.7418,1.7417,1.7416,1.7414,1.7411,1.741,1.7409,1.741,1.7408,1.7409,1.7408,1.7408,1.7408,1.7411,1.7411,1.7411,1.7411,0,1.7433,1.7432,1.7431,1.743,1.7429,1.7428,1.7427,1.7426,1.7423,1.7423,1.7422,1.7421,1.7419,1.7418,1.7416,1.7414,1.7412,1.7412,1.7412,1.7412,1.7413,1.7413,1.7407,1.7412,1.7411,1.7411,1.7411,1.7411,1.7436,1.7436,1.7434,1.7434,1.7432,1.7431,1.7431,1.7429,1.7428,1.7427,1.7425,1.7424,1.7423,1.742,1.7419,1.7418,1.7417,1.7417,1.7417,1.7417,1.7417,1.7414,1.7417,1.7417,1.7417,1.7417,1.7417,0,1.744,1.7439,1.7438,1.7436,1.7436,1.7434,1.7433,1.7432,1.7431,1.743,1.7429,1.7428,1.7427,1.7424,1.7423,1.7422,1.7421,1.7422,1.7422,1.7422,1.7418,1.7418,1.7423,1.7423,1.7423,1.7423,1.7423,1.7423,1.7442,1.7442,1.744,1.744,1.7438,1.7438,1.7437,1.7436,1.7435,1.7434,1.7433,1.7431,1.7429,1.7428,1.7427,1.7426,1.7425,1.7427,1.7426,1.7422,1.7422,1.7421,1.7421,1.7427,1.7427,1.7429,1.7429,1.7429]}]]